Location: Bottenau
(48.5138°N, 8.0462°E)
Time: 16:43:01
(UTC+00:00)

Cosmos 614 Rocket - Pass Details

Date: 18 April 2021
Orbit: 734 x 762 km, 74.1° (Epoch: 07 May)

Event Time Altitude Azimuth Distance (km) Brightness Sun altitude
Rises 20:29:34 0° 208° (SSW) 3,187 7.0 -18.7°
Reaches altitude 10° 20:31:57 10° 210° (SSW) 2,263 6.3 -18.9°
Maximum altitude 20:37:03 70° 294° (WNW) 793 4.2 -19.5°
Drops below altitude 10° 20:42:10 10° 19° (NNE) 2,260 6.8 -20.1°
Sets 20:44:32 0° 22° (NNE) 3,184 7.5 -20.4°
